Latest Weather Observations for Wynyard

IDT60801

Issued at 7:35 pm EST Thursday 24 April 2014 (issued every 30 minutes, with the page automatically refreshed every 10 minutes)

About weather observations | Map of weather stations | Latest weather observations for TAS | Other Formats
Station Details ID: 091107 Name: WYNYARD AIRPORT Lat: -41.00 Lon: 145.73 Height: 12.0 m
Data from the previous 72 hours. | See also: Recent months at Wynyard
Date/Time
EST
Temp
°C
App
Temp
°C
Dew
Point
Rel
Hum
%
Delta-T
°C
Wind Press
QNH
hPa
Press
MSL
hPa
Rain
since 9 am
mm
Dir
 
Spd
km/h
Gust
km/h
Spd
kts
Gust
kts
24/07:30pm 4.5 0.9 3.2 91 0.5 W 11 13 6 7 1018.4 - 0.0
24/07:00pm 4.7 0.7 2.9 88 0.7 W 13 13 7 7 1017.9 - 0.0
24/06:30pm 8.8 6.1 3.8 71 2.2 NW 7 11 4 6 1017.3 - 0.0
24/06:00pm 8.0 5.2 3.1 71 2.1 W 7 11 4 6 1016.6 1016.6 0.0
24/05:30pm 8.7 4.7 3.1 68 2.4 WSW 13 17 7 9 1015.9 - 0.0
24/05:00pm 10.3 5.1 3.3 62 3.0 WSW 20 32 11 17 1015.5 - 0.0
24/04:30pm 11.8 6.4 2.5 53 4.0 WSW 20 30 11 16 1014.9 - 0.0
24/04:00pm 12.0 4.7 2.7 53 4.1 WSW 30 43 16 23 1014.4 - 0.0
24/03:30pm 11.4 4.7 3.7 59 3.4 SW 28 43 15 23 1013.9 - 0.0
24/03:10pm 11.7 5.1 4.0 59 3.4 SW 28 50 15 27 1013.5 - 0.0
24/03:00pm 13.2 6.7 4.6 56 3.9 W 28 35 15 19 1013.2 1013.2 0.0
24/02:30pm 12.6 5.3 4.6 58 3.7 W 32 43 17 23 1012.7 - 0.0
24/02:08pm 12.8 5.0 2.6 50 4.5 WSW 33 65 18 35 1012.6 - 0.0
24/02:00pm 13.0 4.6 3.9 54 4.1 WSW 37 50 20 27 1012.3 - 0.0
24/01:30pm 13.0 5.8 6.1 63 3.3 WSW 33 48 18 26 1012.2 - 0.0
24/01:00pm 12.2 3.6 4.9 61 3.3 WSW 39 57 21 31 1011.6 - 0.0
24/12:30pm 12.2 4.4 4.7 60 3.4 WSW 35 57 19 31 1011.2 - 0.0
24/12:05pm 12.6 6.2 5.3 61 3.4 WSW 28 48 15 26 1011.1 - 0.0
24/12:00pm 12.7 6.0 5.6 62 3.3 WSW 30 43 16 23 1011.3 1011.3 0.0
24/11:30am 12.4 5.5 6.5 67 2.8 WSW 32 44 17 24 1010.9 - 0.0
24/11:00am 11.8 4.9 6.3 69 2.6 WSW 32 41 17 22 1010.4 - 0.0
24/10:50am 12.0 5.0 6.7 70 2.5 WSW 33 54 18 29 1010.2 - 0.0
24/10:30am 11.4 4.6 6.7 73 2.2 W 32 44 17 24 1009.8 - 0.0
24/10:20am 11.1 4.7 6.8 75 2.0 W 30 50 16 27 1009.6 - 0.0
24/10:00am 10.6 3.7 7.1 79 1.7 WSW 33 44 18 24 1009.3 - 0.0
24/09:41am 10.5 4.0 6.6 77 1.8 WSW 30 48 16 26 1009.3 - 0.0
24/09:30am 11.6 5.7 5.9 68 2.7 WSW 26 41 14 22 1008.8 - 0.0
24/09:00am 11.1 5.8 7.0 76 2.0 W 24 30 13 16 1008.1 1008.1 6.8
24/08:30am 10.2 3.8 6.9 80 1.6 WSW 30 48 16 26 1007.6 - 6.8
24/08:22am 10.1 4.0 6.6 79 1.6 WSW 28 48 15 26 1007.4 - 6.8
24/08:00am 9.8 3.8 7.2 84 1.2 WSW 28 41 15 22 1006.8 - 6.8
24/07:44am 9.8 3.9 7.7 87 1.0 WSW 28 46 15 25 1006.5 - 6.8
24/07:30am 10.0 4.6 7.8 86 1.1 W 26 39 14 21 1005.8 - 6.8
24/07:00am 9.8 6.4 9.2 96 0.3 W 17 24 9 13 1005.2 - 6.8
24/06:30am 9.3 6.7 9.2 99 0.0 W 13 15 7 8 1004.6 - 6.8
24/06:00am 10.3 7.9 10.1 99 0.1 NW 13 17 7 9 1004.1 1004.1 6.8
24/05:30am 10.4 7.7 10.2 99 0.1 WNW 15 17 8 9 1003.9 - 6.8
24/05:00am 10.4 6.7 10.2 99 0.1 W 20 32 11 17 1003.7 - 6.6
24/04:49am 10.5 5.7 10.3 99 0.1 WSW 26 35 14 19 1003.8 - 6.0
24/04:30am 10.6 4.5 10.4 99 0.1 WSW 33 46 18 25 1003.6 - 4.4
24/04:29am 10.6 4.7 10.4 99 0.1 WSW 32 46 17 25 1003.6 - 4.0
24/04:03am 11.0 5.2 10.8 99 0.1 WSW 32 50 17 27 1002.8 - 2.4
24/04:00am 11.1 5.7 10.8 98 0.2 WSW 30 50 16 27 1002.7 - 2.4
24/03:49am 11.4 5.3 10.6 95 0.4 WSW 33 72 18 39 1002.7 - 2.0
24/03:42am 12.9 3.1 11.5 91 0.7 W 54 72 29 39 1002.7 - 1.6
24/03:30am 16.1 8.8 11.7 75 2.4 NW 41 61 22 33 1001.9 - 0.0
24/03:00am 16.2 8.7 10.9 71 2.8 NW 41 59 22 32 1002.6 1002.6 0.0
24/02:31am 16.1 9.9 11.3 73 2.6 NW 35 54 19 29 1003.4 - 0.0
24/02:30am 16.1 10.2 11.1 72 2.7 NW 33 46 18 25 1003.5 - 0.0
24/02:00am 16.2 9.8 10.7 70 2.9 NNW 35 56 19 30 1004.4 - 0.0
24/01:36am 16.0 10.5 10.7 71 2.8 NNW 30 50 16 27 1005.0 - 0.0
24/01:30am 15.8 10.4 11.0 73 2.6 NNW 30 39 16 21 1005.2 - 0.0
24/01:11am 15.9 10.9 10.9 72 2.7 NNW 28 46 15 25 1005.6 - 0.0
24/01:00am 15.7 9.9 10.9 73 2.6 NNW 32 44 17 24 1005.8 - 0.0
24/12:38am 15.9 10.8 10.7 71 2.8 NW 28 46 15 25 1006.4 - 0.0
24/12:30am 15.6 11.6 10.6 72 2.6 NW 22 37 12 20 1006.5 - 0.0
24/12:00am 15.4 10.3 10.6 73 2.5 NW 28 35 15 19 1007.1 1007.1 0.0
 
Date/Time
EST
Temp
°C
App
Temp
°C
Dew
Point
Rel
Hum
%
Delta-T
°C
Wind Press
QNH
hPa
Press
MSL
hPa
Rain
since 9 am
mm
Dir
 
Spd
km/h
Gust
km/h
Spd
kts
Gust
kts
23/11:30pm 15.2 10.9 10.8 75 2.3 NW 24 33 13 18 1007.7 - 0.0
23/11:00pm 15.2 10.5 10.6 74 2.4 NW 26 35 14 19 1008.2 - 0.0
23/10:30pm 15.2 10.7 10.2 72 2.6 NW 24 35 13 19 1008.7 - 0.0
23/10:00pm 14.7 11.1 10.5 76 2.2 NW 20 32 11 17 1009.1 - 0.0
23/09:30pm 14.8 10.4 10.4 75 2.3 NW 24 35 13 19 1009.3 - 0.0
23/09:00pm 14.5 10.6 10.9 79 1.9 NW 22 30 12 16 1009.6 1009.6 0.0
23/08:30pm 11.8 11.0 10.9 94 0.5 SW 6 9 3 5 1009.7 - 0.0
23/08:00pm 11.3 10.3 10.4 94 0.5 S 6 7 3 4 1010.1 - 0.0
23/07:30pm 11.1 10.2 10.6 97 0.3 S 6 7 3 4 1010.3 - 0.0
23/07:00pm 10.8 9.9 10.6 99 0.1 SSE 6 7 3 4 1010.3 - 0.0
23/06:30pm 10.8 10.6 8.9 88 0.9 CALM 0 0 0 0 1010.5 - 0.0
23/06:00pm 12.3 9.9 8.6 78 1.8 WNW 11 13 6 7 1010.5 1010.5 0.0
23/05:30pm 13.9 10.6 9.5 75 2.3 WNW 17 20 9 11 1010.5 - 0.0
23/05:00pm 14.8 11.8 10.8 77 2.1 WNW 17 22 9 12 1010.7 - 0.0
23/04:30pm 15.3 12.9 11.3 77 2.1 WNW 15 20 8 11 1010.9 - 0.0
23/04:00pm 15.0 11.4 9.8 71 2.7 NNW 19 30 10 16 1011.0 - 0.0
23/03:30pm 15.9 13.2 10.4 70 2.9 WNW 15 20 8 11 1011.1 - 0.0
23/03:00pm 15.0 11.2 11.0 77 2.1 NW 22 32 12 17 1011.3 1011.3 0.0
23/02:30pm 16.3 13.3 11.9 75 2.4 NW 19 28 10 15 1011.5 - 0.0
23/02:00pm 14.8 11.8 12.1 84 1.5 NW 19 33 10 18 1011.9 - 0.0
23/01:30pm 13.9 9.8 11.4 85 1.3 NNW 24 33 13 18 1012.5 - 0.0
23/01:00pm 15.9 12.3 10.4 70 2.9 NW 20 32 11 17 1012.7 - 0.0
23/12:30pm 16.3 13.0 10.8 70 2.9 NNW 19 28 10 15 1013.1 - 0.0
23/12:00pm 15.0 12.4 10.6 75 2.3 NNW 15 24 8 13 1013.8 1013.8 0.0
23/11:30am 14.9 13.2 11.3 79 1.9 NNE 11 15 6 8 1014.1 - 0.0
23/11:00am 15.0 13.8 11.6 80 1.8 NNE 9 15 5 8 1014.3 - 0.0
23/10:30am 14.4 13.3 10.6 78 2.0 N 7 11 4 6 1014.5 - 0.0
23/10:00am 13.3 13.0 11.5 89 1.0 WSW 4 7 2 4 1014.9 - 0.0
23/09:30am 11.7 10.7 11.1 96 0.3 W 7 9 4 5 1015.3 - 0.0
23/09:00am 10.5 9.3 10.2 98 0.2 WNW 7 9 4 5 1015.6 1015.6 0.0
23/08:30am 9.1 7.2 9.0 99 0.0 W 9 11 5 6 1015.6 - 0.0
23/08:00am 8.4 6.7 8.3 99 0.0 W 7 9 4 5 1015.6 - 0.0
23/07:30am 7.7 5.4 7.6 99 0.0 W 9 13 5 7 1015.4 - 0.0
23/07:00am 7.9 5.7 7.8 99 0.0 WNW 9 11 5 6 1015.1 - 0.0
23/06:30am 6.9 4.8 6.8 99 0.0 W 7 9 4 5 1014.8 - 0.0
23/06:00am 8.2 6.1 8.1 99 0.0 WNW 9 13 5 7 1015.0 1015.0 0.0
23/05:30am 8.4 6.3 8.3 99 0.0 WNW 9 13 5 7 1015.0 - 0.0
23/05:00am 7.9 5.7 7.8 99 0.0 W 9 13 5 7 1015.0 - 0.0
23/04:30am 7.9 6.1 7.8 99 0.0 WNW 7 9 4 5 1015.0 - 0.0
23/04:00am 7.5 5.2 7.4 99 0.0 W 9 9 5 5 1015.0 - 0.0
23/03:30am 7.6 5.7 7.5 99 0.0 W 7 9 4 5 1015.0 - 0.0
23/03:00am 8.2 7.0 8.1 99 0.0 W 4 9 2 5 1015.1 1015.1 0.0
23/02:30am 8.3 5.8 8.2 99 0.0 W 11 13 6 7 1015.4 - 0.0
23/02:00am 7.7 5.4 7.6 99 0.0 W 9 11 5 6 1015.5 - 0.0
23/01:30am 7.5 5.2 7.4 99 0.0 WSW 9 11 5 6 1015.7 - 0.0
23/01:00am 7.0 5.0 6.9 99 0.0 SSW 7 9 4 5 1015.7 - 0.0
23/12:30am 6.9 4.5 6.8 99 0.0 W 9 9 5 5 1015.9 - 0.0
23/12:00am 5.2 3.0 5.1 99 0.0 SW 6 7 3 4 1015.6 1015.6 0.0
 
Date/Time
EST
Temp
°C
App
Temp
°C
Dew
Point
Rel
Hum
%
Delta-T
°C
Wind Press
QNH
hPa
Press
MSL
hPa
Rain
since 9 am
mm
Dir
 
Spd
km/h
Gust
km/h
Spd
kts
Gust
kts
22/11:30pm 6.9 5.0 6.8 99 0.0 WNW 6 9 3 5 1015.8 - 0.0
22/11:00pm 5.9 3.6 5.8 99 0.0 W 7 11 4 6 1015.7 - 0.0
22/10:30pm 5.5 2.8 5.4 99 0.0 SW 9 11 5 6 1015.7 - 0.0
22/10:00pm 5.7 3.4 5.6 99 0.0 WSW 7 9 4 5 1015.6 - 0.0
22/09:30pm 6.4 4.4 6.3 99 0.0 SW 6 7 3 4 1015.3 - 0.0
22/09:00pm 6.4 3.8 6.3 99 0.0 WSW 9 11 5 6 1015.0 1015.0 0.0
22/08:30pm 7.4 5.4 7.1 98 0.1 W 7 9 4 5 1014.7 - 0.0
22/08:00pm 8.2 6.6 7.9 98 0.1 WSW 6 6 3 3 1014.6 - 0.0
22/07:30pm 9.6 7.9 8.2 91 0.7 W 7 9 4 5 1014.2 - 0.0
22/07:00pm 10.2 7.8 7.1 81 1.5 WNW 9 11 5 6 1013.9 - 0.0
22/06:30pm 11.5 9.1 7.2 75 2.1 W 9 11 5 6 1013.6 - 0.0
22/06:00pm 12.1 8.2 7.0 71 2.4 W 17 22 9 12 1013.3 1013.3 0.0
22/05:30pm 13.1 9.2 7.3 68 2.8 W 17 20 9 11 1012.7 - 0.0
22/05:00pm 14.7 10.3 7.5 62 3.6 W 20 26 11 14 1012.4 - 0.0
22/04:30pm 15.6 10.4 7.1 57 4.2 W 24 32 13 17 1012.1 - 0.0
22/04:00pm 16.0 9.9 6.7 54 4.6 W 28 33 15 18 1011.8 - 0.0
22/03:30pm 16.2 9.0 5.8 50 5.0 W 33 46 18 25 1011.7 - 0.0
22/03:00pm 16.9 11.3 7.3 53 4.8 WSW 26 35 14 19 1011.5 1011.5 0.0
22/02:30pm 17.0 9.9 6.2 49 5.3 W 33 43 18 23 1011.2 - 0.0
22/02:00pm 16.7 8.9 6.8 52 4.9 W 37 52 20 28 1010.9 - 0.0
22/01:30pm 18.2 13.3 9.8 58 4.4 W 26 39 14 21 1010.8 - 0.0
22/01:00pm 16.8 9.3 8.0 56 4.5 WSW 37 50 20 27 1010.6 - 0.0
22/12:54pm 17.6 10.1 7.9 53 4.9 WSW 37 50 20 27 1010.5 - 0.0
22/12:30pm 17.5 11.2 8.9 57 4.5 W 32 43 17 23 1010.6 - 0.0
22/12:00pm 17.4 10.9 8.8 57 4.4 W 33 44 18 24 1010.6 1010.6 0.0
22/11:30am 17.4 12.8 9.8 61 4.0 WSW 24 33 13 18 1010.6 - 0.0
22/11:00am 17.6 12.3 11.2 66 3.5 W 30 41 16 22 1010.7 - 0.0
22/10:30am 16.6 11.9 10.7 68 3.1 WSW 26 35 14 19 1010.3 - 0.0
22/10:00am 16.0 11.9 11.4 74 2.5 W 24 39 13 21 1010.2 - 0.0
22/09:30am 15.7 11.7 13.0 84 1.5 W 26 33 14 18 1009.9 - 0.0
22/09:00am 14.8 11.2 13.2 90 0.9 W 24 32 13 17 1009.7 1009.7 16.4
22/08:30am 14.6 12.2 13.8 95 0.4 W 19 24 10 13 1009.6 - 16.4
22/08:00am 14.4 12.5 14.1 98 0.2 WNW 17 20 9 11 1009.4 - 16.4
22/07:30am 14.1 12.9 13.9 99 0.1 WNW 13 17 7 9 1008.9 - 16.4
22/07:00am 14.2 13.0 14.0 99 0.1 W 13 17 7 9 1008.4 - 16.4
22/06:30am 14.8 12.7 14.6 99 0.1 WNW 19 22 10 12 1008.2 - 16.4
22/06:00am 15.0 13.7 14.8 99 0.1 WNW 15 19 8 10 1007.4 1007.4 16.4
22/05:34am 15.3 13.7 15.1 99 0.1 WNW 17 22 9 12 1007.2 - 16.4
22/05:30am 15.3 13.7 15.1 99 0.1 WNW 17 22 9 12 1007.2 - 16.4
22/05:25am 15.5 13.6 15.3 99 0.1 WNW 19 24 10 13 1007.3 - 16.4
22/05:02am 15.5 14.0 15.3 99 0.1 W 17 20 9 11 1007.1 - 14.6
22/05:01am 15.5 14.4 15.3 99 0.1 W 15 20 8 11 1007.2 - 13.8
22/05:00am 15.5 14.4 15.3 99 0.1 W 15 20 8 11 1007.1 - 13.8
22/04:56am 15.6 14.5 15.4 99 0.1 W 15 22 8 12 1007.0 - 13.4
22/04:43am 15.5 14.0 15.3 99 0.1 WNW 17 24 9 13 1007.1 - 13.4
22/04:30am 15.7 13.3 15.5 99 0.1 WNW 22 32 12 17 1007.2 - 13.4
22/04:19am 15.5 12.7 15.3 99 0.1 NW 24 32 13 17 1007.3 - 13.4
22/04:00am 15.4 12.1 14.9 97 0.3 NW 26 39 14 21 1007.4 - 13.0
22/03:45am 15.7 11.0 14.4 92 0.7 WNW 32 46 17 25 1007.3 - 12.2
22/03:40am 16.3 11.2 13.8 85 1.4 NW 33 52 18 28 1007.1 - 11.6
22/03:30am 17.3 12.1 13.4 78 2.2 NW 33 48 18 26 1007.0 - 11.4
22/03:22am 17.5 13.4 13.8 79 2.1 NW 28 46 15 25 1006.9 - 11.4
22/03:00am 17.8 13.7 13.7 77 2.3 NW 28 43 15 23 1007.0 1007.0 11.4
22/02:54am 17.7 13.1 13.6 77 2.3 WNW 30 48 16 26 1007.1 - 11.4
22/02:30am 17.6 13.1 13.9 79 2.1 NW 30 44 16 24 1007.4 - 11.4
22/02:00am 17.4 13.5 13.3 77 2.3 NW 26 41 14 22 1007.7 - 11.4
22/01:30am 17.3 13.1 13.6 79 2.1 NW 28 41 15 22 1007.9 - 11.4
22/01:00am 17.4 13.7 13.9 80 2.0 NW 26 41 14 22 1008.0 - 11.4
22/12:30am 17.1 13.1 14.0 82 1.8 NW 28 44 15 24 1008.2 - 11.4
22/12:00am 17.0 12.9 13.7 81 1.9 NW 28 37 15 20 1008.5 1008.5 11.2
 
Date/Time
EST
Temp
°C
App
Temp
°C
Dew
Point
Rel
Hum
%
Delta-T
°C
Wind Press
QNH
hPa
Press
MSL
hPa
Rain
since 9 am
mm
Dir
 
Spd
km/h
Gust
km/h
Spd
kts
Gust
kts
21/11:30pm 16.8 13.4 13.7 82 1.8 NW 24 39 13 21 1008.8 - 11.2
21/11:00pm 14.8 14.1 14.2 96 0.3 W 11 15 6 8 1009.3 - 11.2
21/10:30pm 14.4 14.4 14.2 99 0.1 SE 7 9 4 5 1009.5 - 11.2
21/10:00pm 14.9 15.1 14.7 99 0.1 ENE 7 11 4 6 1010.4 - 11.2
21/09:30pm 15.1 14.6 14.9 99 0.1 NNE 11 19 6 10 1010.7 - 11.0
21/09:00pm 15.0 13.7 14.8 99 0.1 NE 15 22 8 12 1011.0 1011.0 10.2
21/08:30pm 12.0 11.5 12.0 100 0.0 E 6 9 3 5 1011.5 - 9.2
21/08:00pm 10.1 8.8 9.9 99 0.1 S 7 7 4 4 1011.6 - 8.8

Other Formats:

Comma delimited format used in spreadsheet applications
http://www.bom.gov.au/fwo/IDT60801/IDT60801.95957.axf

JavaScript Object Notation format (JSON) in row-major order
http://www.bom.gov.au/fwo/IDT60801/IDT60801.95957.json